Theta_e
292 292 293 294 293 294 294 294 294 294 295 296 295 296 297 300 291 291 300 302 301 303 308 314 315 312 313 310 314 316 323 322 324 325 325 326 327 328 327 328 328 327 327 329 330 331 331 333 333 333 333 334 335 335 335 335 336 336 337 335 334 333 333 332 331 332 334 334 334 333 332 331 332 331 330 331 331 330 329 329 330 330 330 329 330 329 327
292 293 293 294 293 293 294 294 294 295 295 296 296 297 300 300 297 302 302 303 302 306 309 314 316 319 315 313 321 322 321 323 323 324 324 325 325 326 325 325 326 327 328 330 330 332 332 333 333 334 334 334 335 334 334 335 335 336 336 335 334 333 332 332 332 332 333 334 333 332 330 330 331 331 331 332 331 330 329 329 330 330 330 330 329 326 325
291 292 293 294 294 293 292 294 295 296 297 296 297 299 299 300 298 302 302 302 301 307 313 315 315 317 319 319 319 318 320 322 323 323 323 324 324 325 325 326 326 327 328 330 330 331 332 333 334 334 334 335 335 335 335 335 335 336 336 335 334 333 332 332 332 332 333 333 333 331 331 330 331 331 330 331 331 330 330 328 329 329 330 328 326 324 323
288 292 292 292 293 294 293 293 294 294 295 294 297 296 299 298 297 299 300 299 300 308 314 314 314 313 310 311 317 321 321 320 321 321 322 322 323 323 323 324 326 326 327 329 330 331 332 334 334 335 335 334 334 334 335 335 336 336 335 335 334 333 333 333 332 332 333 333 332 332 331 330 330 330 330 330 330 330 329 328 328 329 327 325 324 323 323
286 292 293 292 292 292 288 289 293 296 297 298 299 300 302 301 302 296 294 298 305 310 313 312 312 311 311 311 313 315 320 322 322 321 322 322 322 323 323 324 326 327 328 331 332 333 334 334 335 336 335 334 333 334 335 336 336 334 334 334 334 333 333 333 332 333 333 332 332 331 330 330 330 329 329 329 328 328 328 328 329 327 325 324 323 324 323
286 292 292 292 288 281 283 296 300 299 297 297 296 297 301 303 303 300 304 304 308 310 311 311 312 313 313 314 318 321 318 320 323 323 323 323 324 324 325 327 327 328 331 331 333 333 334 336 337 336 335 335 335 336 336 336 335 334 333 333 333 332 332 332 332 332 332 331 331 331 330 330 330 329 328 327 327 327 327 327 327 325 324 323 323 322 321
286 290 291 286 280 282 297 302 303 301 301 301 303 304 306 306 306 305 305 307 309 309 312 314 314 316 316 319 318 319 322 322 321 323 322 323 323 325 326 327 328 330 331 332 333 331 326 327 325 323 330 335 336 335 336 335 334 333 333 333 332 332 332 331 331 331 331 331 330 330 329 329 328 327 326 327 327 326 326 325 325 323 323 322 321 321 321
287 286 286 279 281 295 300 302 304 304 302 306 305 302 306 307 307 306 305 308 309 311 312 314 315 315 317 318 318 318 322 324 325 323 323 325 326 325 327 328 330 332 332 332 327 323 323 324 325 326 326 329 334 334 335 334 333 333 332 331 331 331 331 331 330 330 330 329 329 330 328 328 326 326 326 326 325 325 325 325 324 323 323 322 321 320 321
285 287 286 286 295 295 298 297 301 300 300 301 299 293 300 307 307 307 307 308 310 312 311 310 311 313 314 314 314 319 320 323 325 326 327 328 329 330 331 332 333 334 334 329 327 326 326 326 326 326 327 329 330 334 333 333 332 332 331 330 330 331 330 330 330 330 330 329 328 329 328 327 325 325 325 325 325 325 324 323 322 321 321 320 320 320 320
290 286 286 287 286 284 289 300 306 308 308 308 307 302 299 307 307 308 308 307 310 312 311 311 312 313 307 307 310 316 319 322 323 325 327 329 331 331 331 333 335 334 331 328 327 327 326 327 327 327 327 326 326 331 332 332 331 330 330 330 330 330 329 330 330 331 330 329 328 328 327 326 325 325 325 325 324 323 322 321 320 320 320 319 319 320 319
288 288 285 285 283 285 296 299 304 307 308 309 308 301 295 305 307 309 309 309 311 312 312 312 315 311 306 307 310 315 318 320 322 322 324 327 329 331 332 332 332 332 330 328 328 328 328 326 327 327 326 326 327 330 330 330 330 329 330 330 330 329 330 330 331 331 330 330 329 327 326 326 326 325 324 324 323 323 322 321 320 320 319 318 318 319 319
289 288 286 284 287 287 295 301 304 306 309 310 303 287 288 304 308 310 311 310 311 311 312 313 312 310 303 307 310 317 319 320 321 322 323 323 326 328 331 332 333 333 329 327 327 326 326 327 330 331 330 330 329 329 329 331 330 329 330 330 331 331 331 331 331 331 331 330 329 327 326 326 326 325 323 321 321 321 321 320 319 318 318 318 317 317 319
289 288 287 289 289 296 301 302 306 306 310 306 289 284 294 306 308 310 311 311 312 313 314 314 309 311 313 314 317 320 320 320 321 322 324 324 325 326 328 327 321 330 326 323 325 326 327 329 329 328 327 326 326 329 330 329 328 330 330 330 330 330 329 330 330 330 330 329 328 328 327 325 323 322 322 321 320 320 320 319 318 317 317 317 317 316 317
288 289 287 287 290 298 303 306 307 309 302 289 286 299 308 309 308 310 311 311 313 314 313 313 313 315 318 318 319 319 319 320 321 323 324 323 325 325 321 318 320 321 323 324 324 326 327 328 327 326 326 324 325 328 329 329 330 331 330 329 329 328 328 328 328 329 329 328 328 326 322 321 321 321 322 322 321 320 318 317 316 316 316 315 316 316 315
290 287 287 286 283 294 306 306 304 308 294 294 304 307 308 310 310 310 310 311 313 315 313 315 316 317 317 317 317 319 320 320 320 322 323 324 323 322 322 321 320 321 320 319 319 321 324 327 327 326 327 323 323 324 327 329 331 330 329 329 328 328 328 328 328 328 327 327 326 324 323 323 322 321 321 321 320 319 317 316 315 315 315 314 313 313 314
287 288 286 285 292 301 308 306 296 304 306 309 311 309 306 308 310 310 309 310 312 316 316 315 316 317 316 316 317 318 319 319 321 322 322 323 323 325 324 324 324 325 323 323 323 322 323 325 327 328 326 322 324 324 327 331 331 330 330 329 329 328 328 328 328 326 325 325 325 324 323 322 322 321 321 320 319 319 317 315 314 314 314 312 312 312 312
291 289 292 299 303 304 307 308 307 308 310 310 310 309 308 307 307 311 309 309 310 313 316 316 316 315 316 316 317 316 316 317 319 320 321 323 323 325 324 324 325 326 325 324 325 326 327 327 327 328 328 325 323 323 328 331 330 330 329 329 329 327 325 323 323 324 324 325 324 323 322 321 320 320 320 319 318 318 317 315 314 313 313 312 312 311 310
301 302 304 306 306 305 305 307 308 307 308 310 310 309 307 308 310 309 308 308 309 310 315 314 314 314 315 315 315 316 317 317 318 319 321 322 325 324 325 325 326 325 325 325 324 323 325 326 327 327 329 329 326 327 330 331 332 333 332 329 327 325 323 322 322 322 322 322 322 321 320 320 319 319 319 317 316 317 316 315 315 313 311 310 309 309 308
295 289 301 302 303 304 305 305 307 308 309 309 310 310 310 310 310 310 309 307 307 309 309 315 314 314 315 315 315 316 316 316 317 318 318 319 320 321 321 324 323 324 324 323 322 322 322 324 325 326 326 327 327 327 327 328 328 328 326 324 321 321 321 321 321 321 320 318 317 318 318 319 319 319 318 317 316 315 315 314 313 311 309 307 307 306 305
293 292 301 303 305 305 306 306 305 305 307 308 309 311 312 311 312 311 311 310 310 311 308 310 315 314 316 315 315 315 315 316 316 317 318 319 320 321 322 323 322 322 321 320 320 320 321 323 324 325 325 324 326 326 326 327 326 324 323 322 320 319 319 319 318 318 317 305 312 315 315 317 316 314 313 314 313 313 311 312 311 309 307 306 305 304 303
298 300 301 303 304 304 304 305 306 307 307 307 308 309 310 311 311 310 312 313 313 312 311 312 311 312 314 316 316 316 316 316 316 317 318 318 319 320 320 321 320 320 319 319 319 320 320 322 323 323 323 324 325 326 326 326 326 322 320 316 318 318 317 317 316 315 314 314 313 310 304 299 297 299 307 311 309 307 308 311 311 309 308 308 307 307 306
290 292 297 301 294 293 300 303 305 306 307 308 307 308 308 308 309 310 311 312 314 314 313 312 313 311 313 315 316 315 316 317 317 318 318 318 318 319 320 320 320 320 320 320 319 319 319 321 321 321 322 322 324 325 325 324 324 319 318 318 317 316 316 314 312 311 310 309 308 305 303 302 300 297 290 290 296 306 303 298 298 299 300 307 308 306 304
291 300 302 304 303 301 302 303 306 307 307 306 306 306 306 308 309 310 310 310 310 311 313 315 314 313 313 314 316 315 316 317 318 319 318 318 318 318 319 318 318 317 318 318 318 318 318 319 319 319 320 321 322 322 323 323 322 319 318 316 314 314 312 310 307 308 307 306 305 305 304 303 301 298 297 295 291 290 292 295 295 295 297 297 299 300 304
303 306 305 306 303 301 303 305 306 306 307 306 305 305 307 307 308 309 310 310 309 309 312 314 315 314 314 315 315 314 316 317 317 318 318 318 319 318 318 317 316 316 316 316 316 316 317 317 317 318 317 318 319 319 320 319 319 319 317 315 312 311 309 307 304 306 305 304 304 303 303 302 301 300 299 297 295 291 291 292 292 293 294 294 295 295 295
302 306 306 305 305 305 306 306 306 307 308 307 305 305 306 307 308 309 309 309 310 310 310 311 312 314 314 314 315 314 314 315 315 314 313 313 314 317 317 317 316 315 316 317 317 316 316 316 316 316 316 316 318 318 318 317 317 316 315 312 310 308 307 306 304 303 303 303 303 302 302 301 301 300 300 298 297 295 294 291 291 291 292 293 293 293 294
306 306 306 307 306 306 307 306 305 306 306 307 307 307 307 307 308 309 309 310 310 310 310 311 312 313 315 315 315 315 314 314 312 315 316 315 316 316 315 315 315 316 316 316 315 315 315 315 316 315 315 315 315 316 316 316 316 314 311 310 309 307 305 304 304 303 303 303 302 302 302 302 302 301 299 299 298 297 296 296 296 294 292 291 292 292 293
307 307 306 304 303 303 305 303 302 305 306 307 307 307 308 309 307 309 309 310 310 310 310 311 312 314 314 315 313 313 314 314 315 316 315 314 314 314 316 316 316 315 314 314 314 312 311 315 314 314 313 314 315 315 315 315 313 311 310 308 306 297 294 299 304 303 303 302 302 302 302 300 299 298 298 298 298 298 298 297 297 296 295 293 291 291 292
306 305 305 301 300 301 303 305 306 305 306 306 306 306 307 308 308 307 307 308 309 310 310 311 311 312 312 314 315 315 315 315 314 314 314 313 314 315 316 316 316 314 314 314 314 314 314 314 313 313 313 314 315 314 314 312 311 309 307 306 305 305 304 302 303 302 302 302 302 302 301 300 300 299 298 298 299 300 298 297 296 295 293 293 291 289 290
304 305 306 305 305 305 306 306 305 304 305 306 306 306 307 306 306 306 306 307 307 308 309 310 311 312 312 312 314 314 314 314 313 312 313 314 314 314 315 315 315 315 315 314 314 315 314 314 313 312 312 314 314 313 313 312 310 308 306 306 305 304 304 304 303 302 302 303 303 301 296 297 298 300 300 299 299 300 299 298 296 295 293 292 293 292 291
304 305 305 304 305 305 305 303 303 303 303 304 304 304 305 306 304 304 305 306 307 306 308 309 309 310 311 311 312 313 312 312 312 313 314 314 314 315 314 315 315 313 313 312 312 312 312 312 311 311 311 313 313 312 312 311 310 308 307 307 305 304 304 304 303 303 303 300 297 292 297 299 301 301 300 300 300 299 298 296 294 293 294 294 293 293 292
304 305 305 305 304 304 303 302 303 302 303 303 304 303 304 304 304 304 304 306 306 306 308 308 308 309 310 311 312 313 314 314 313 313 313 314 314 315 314 314 312 309 308 310 311 312 311 311 311 311 312 313 312 311 310 309 308 308 306 305 303 295 293 294 297 302 300 298 298 300 300 300 302 300 298 299 299 298 297 295 295 295 294 295 295 293 294
303 303 303 303 303 302 302 302 302 301 301 302 302 302 302 302 302 302 304 304 305 306 306 307 307 308 309 311 311 311 314 313 313 313 313 313 314 314 314 313 311 306 311 311 311 311 311 311 310 311 313 312 312 311 310 309 307 305 303 298 301 300 296 293 297 298 298 298 299 300 299 301 301 299 297 297 296 296 298 297 296 295 296 295 294 294 295
300 300 300 299 299 301 301 300 301 301 301 301 301 303 303 304 303 303 304 305 305 306 306 306 308 309 310 310 310 311 313 313 313 312 312 312 312 313 314 314 313 312 312 312 312 312 312 310 310 312 312 312 311 311 310 309 306 304 303 302 300 299 295 294 295 299 298 299 300 300 300 299 299 299 298 297 298 297 298 297 295 296 297 296 296 297 296
301 300 300 300 300 298 298 299 301 301 301 301 302 303 303 303 303 303 304 305 305 305 306 306 308 309 309 309 309 309 313 312 308 309 310 311 311 312 313 313 313 313 313 312 312 311 311 311 311 311 311 311 310 309 308 307 305 304 302 301 299 298 298 298 297 299 299 298 298 298 298 298 299 298 298 298 300 299 296 296 295 296 297 297 297 297 294
302 301 302 301 302 302 302 301 300 301 300 300 301 302 302 303 303 303 304 304 305 306 307 307 308 308 308 308 308 308 309 310 308 308 309 310 311 312 313 312 312 312 311 311 311 311 312 312 312 311 310 310 309 308 307 306 305 303 302 301 299 300 300 299 301 300 299 299 299 300 299 299 298 295 297 299 299 297 297 297 297 296 296 296 296 296 295
302 301 301 301 301 302 302 302 302 301 301 301 301 302 302 302 303 303 303 304 306 307 307 307 307 308 307 307 306 306 307 308 309 309 309 309 310 311 312 312 311 310 310 310 311 311 310 307 292 295 309 308 308 307 307 305 304 303 301 301 299 299 300 300 300 301 301 301 300 299 299 296 296 296 297 299 298 298 298 297 297 297 298 297 296 295 294
302 301 301 301 301 302 302 302 302 302 301 301 301 302 302 303 303 304 304 304 305 306 307 307 307 306 306 306 306 307 307 308 308 309 309 310 311 311 310 310 310 310 309 308 310 311 309 307 296 295 303 305 304 303 300 293 302 302 301 301 300 299 299 299 298 298 297 297 296 295 293 294 297 298 297 298 297 297 297 297 297 296 296 295 294 294 293
302 302 302 302 302 302 302 303 303 303 302 302 302 301 301 302 303 304 303 304 304 305 306 307 306 307 307 307 306 305 306 306 307 308 308 309 309 307 306 306 304 305 305 306 311 311 310 303 290 302 306 304 303 303 299 292 294 302 302 301 300 299 297 297 296 295 295 296 294 296 296 296 296 296 295 296 295 294 294 294 294 294 294 294 294 294 294
300 301 301 302 302 302 302 302 302 302 302 302 302 302 302 303 304 304 303 303 304 304 305 306 306 306 306 305 304 304 304 306 306 307 307 307 307 305 303 304 305 305 305 306 312 309 308 307 311 308 305 303 303 303 297 292 295 302 301 301 300 298 297 296 296 295 295 296 296 296 297 296 295 295 294 293 293 292 291 293 293 293 294 294 294 293 294
300 300 300 301 301 301 302 301 302 302 302 303 302 302 303 302 303 303 303 303 304 303 305 305 305 304 304 304 304 303 304 305 305 306 306 307 306 305 304 304 304 305 304 298 307 306 300 293 304 308 305 304 304 303 301 298 298 300 302 300 300 298 298 297 297 296 296 296 294 292 295 294 294 293 292 292 292 292 292 292 292 292 293 293 293 293 292
300 300 301 301 300 301 301 302 302 302 302 302 301 303 304 303 303 303 302 302 304 305 304 303 302 303 304 304 304 304 304 304 305 305 306 306 305 304 302 300 303 303 302 302 304 304 301 301 306 306 306 304 303 298 303 298 304 303 301 300 298 298 298 298 297 297 296 296 295 295 295 294 293 294 293 293 293 293 293 293 293 293 293 293 293 293 293
299 300 300 300 300 301 302 303 303 302 301 302 302 303 304 304 303 302 303 303 304 304 305 304 298 303 304 305 305 305 305 305 304 303 303 302 302 302 300 300 303 301 290 294 300 301 305 305 303 300 304 303 301 294 294 302 302 301 300 299 297 296 297 296 296 296 295 295 295 295 294 294 294 293 292 293 293 293 294 294 294 294 294 293 293 294 294
300 300 300 300 301 302 302 302 302 301 302 302 302 303 303 304 304 303 304 304 303 303 303 304 303 302 302 303 304 304 305 305 304 302 301 301 301 301 300 300 302 301 289 297 303 306 303 301 300 300 296 299 299 291 293 301 300 299 298 297 296 296 297 297 296 296 296 295 295 295 294 294 293 293 292 292 293 293 293 293 293 293 293 293 295 295 295
301 301 300 300 300 300 301 301 302 302 301 301 303 304 304 304 304 303 303 303 303 303 303 303 303 303 302 303 303 302 301 302 302 304 302 301 300 300 299 299 300 297 290 297 302 301 300 299 298 293 288 289 290 293 300 299 299 298 298 297 297 297 296 296 296 296 296 295 294 294 294 292 293 293 293 292 291 291 291 291 291 292 293 294 294 294 295
301 301 301 301 302 301 300 301 302 301 302 303 304 303 304 304 304 304 304 303 302 302 301 302 302 302 303 302 301 302 302 303 303 302 302 301 298 296 297 294 297 296 293 292 297 297 297 296 292 289 290 289 290 292 300 299 299 298 298 297 296 296 295 296 296 296 295 295 294 293 292 293 293 292 292 291 290 290 290 290 291 292 293 293 294 295 295
301 301 301 297 301 301 302 303 303 304 303 302 302 302 303 304 304 304 304 303 302 303 303 303 303 302 303 303 302 302 302 302 302 301 298 297 297 295 294 291 295 292 291 291 295 295 294 287 287 289 289 291 292 298 299 298 297 297 297 296 296 294 294 294 294 294 294 293 293 293 293 293 293 293 292 291 291 291 291 290 292 293 293 293 293 293 293
301 301 302 302 302 303 303 303 303 302 302 301 301 301 302 303 303 304 304 304 303 303 303 303 303 303 303 303 302 302 300 299 300 301 299 296 295 293 290 288 288 289 292 295 295 295 294 295 290 288 290 291 293 299 299 298 297 296 296 295 294 294 293 294 294 294 294 293 292 292 291 292 293 294 293 293 294 293 292 291 292 292 292 291 291 290 290
301 301 302 302 302 303 303 303 302 301 301 300 301 301 303 303 303 304 304 304 304 304 304 304 303 303 303 303 303 302 302 300 296 297 300 299 298 297 296 295 293 289 290 290 289 288 287 287 288 289 289 291 296 298 297 296 295 295 295 295 295 295 295 294 294 294 293 293 293 294 295 295 295 295 295 294 293 293 292 291 291 291 292 291 291 291 292
302 301 302 303 303 302 301 301 300 300 301 302 302 302 303 303 303 303 303 304 304 303 303 303 303 303 303 301 301 302 301 302 301 297 298 298 298 297 297 294 290 291 294 295 294 292 288 288 288 289 290 291 297 296 296 296 295 294 295 295 294 294 294 295 295 296 296 296 296 296 295 295 295 295 294 293 292 292 291 291 291 290 290 290 290 290 290
302 302 301 301 301 302 302 301 301 300 301 302 302 303 304 303 302 301 302 303 303 302 303 302 302 303 303 303 302 302 302 301 301 301 300 300 300 299 298 298 297 292 292 296 295 294 289 289 289 290 292 295 295 294 295 295 295 294 295 294 295 295 293 292 291 292 295 295 294 293 292 292 291 290 290 290 290 290 290 290 289 288 287 288 289 289 289
301 300 301 300 302 303 303 303 301 301 302 303 303 302 303 302 302 301 302 302 303 301 301 301 301 302 302 302 302 301 299 299 297 294 298 298 298 295 295 296 296 294 296 296 297 297 297 296 295 293 293 293 293 293 292 292 292 291 291 293 294 294 294 294 294 296 296 295 294 294 293 292 292 291 291 290 290 290 290 290 290 290 289 289 289 289 289
302 302 303 302 302 303 303 303 303 303 303 303 303 303 303 302 303 302 301 296 302 301 301 300 300 301 302 301 300 299 300 299 298 297 295 297 296 296 294 292 296 295 296 296 295 295 294 293 290 289 290 294 294 293 289 289 291 291 290 290 290 292 292 293 293 294 294 294 293 293 292 292 292 291 290 290 290 289 289 289 289 288 288 288 288 288 288
Wind_Speed
16 14 15 17 19 18 16 15 13 14 16 15 11 5 8 4 3 2 13 16 13 11 10 13 13 9 5 5 9 9 7 8 10 10 12 13 14 14 15 14 13 13 15 13 14 14 13 15 15 14 14 13 12 11 11 12 12 12 11 11 11 11 10 9 9 10 9 9 9 9 9 9 9 9 9 8 8 9 8 7 7 8 7 5 6 7 6
11 9 12 16 19 17 16 16 17 18 15 12 11 6 9 15 12 6 14 14 13 8 6 8 7 8 8 7 8 9 11 10 11 11 11 12 13 14 15 15 15 13 13 13 13 13 13 16 16 14 13 12 12 13 12 11 12 12 11 10 11 11 11 10 10 10 10 9 10 10 10 9 9 9 9 9 9 8 7 7 7 7 8 6 6 6 6
8 10 12 14 18 17 16 18 17 16 13 14 13 6 5 4 4 11 11 14 10 9 9 10 11 11 7 6 9 10 11 10 12 11 11 12 13 14 14 14 14 13 13 13 13 13 14 16 15 13 12 12 11 11 12 13 13 12 11 10 10 10 11 10 10 10 9 11 10 11 10 11 9 9 9 8 8 8 7 6 6 6 7 7 6 5 5
5 12 14 16 17 16 16 15 15 17 17 15 8 5 1 5 5 6 10 10 7 7 6 8 11 12 17 13 8 5 5 11 10 11 13 12 13 13 13 13 14 14 15 15 15 14 15 14 14 12 11 12 11 11 11 13 12 11 11 10 10 10 11 11 11 11 11 11 10 10 10 11 10 9 9 9 9 9 9 9 6 5 6 6 6 5 4
6 12 14 16 17 14 13 14 15 15 12 11 11 8 8 8 8 7 4 7 6 6 4 8 10 11 11 8 11 12 5 7 10 10 11 12 13 13 14 13 13 13 12 12 12 13 13 12 13 12 12 11 11 11 11 11 11 10 10 11 11 11 11 11 12 11 12 13 11 10 9 10 9 9 10 10 9 9 8 7 6 5 6 6 5 3 4
4 9 15 14 11 9 8 6 9 13 12 12 9 8 11 9 8 5 7 7 7 8 6 5 8 8 7 3 2 4 7 8 6 9 9 8 7 8 10 11 12 12 11 11 10 12 11 11 11 10 10 7 9 9 11 10 11 11 11 11 11 11 12 12 12 11 11 11 11 11 10 10 9 9 10 10 8 7 7 6 6 6 6 6 5 3 4
3 7 7 11 6 8 4 5 2 13 14 9 16 11 14 11 8 8 10 5 6 7 5 5 6 7 6 6 9 12 12 9 2 6 9 9 8 6 6 9 11 10 11 10 11 8 8 6 8 8 3 10 8 9 11 10 10 10 10 11 11 11 11 12 11 10 11 10 11 11 11 10 9 10 9 9 9 8 7 8 7 8 7 6 5 4 5
2 3 4 8 8 3 1 3 5 5 5 15 14 11 13 13 10 6 7 5 5 7 8 6 4 7 7 7 10 13 13 15 9 4 7 8 7 7 6 6 7 9 9 9 11 10 12 15 10 9 4 7 5 8 11 11 10 10 11 11 11 11 11 11 11 11 11 11 10 11 11 10 10 10 9 10 10 8 7 7 6 5 6 6 6 5 4
2 5 6 3 4 4 4 4 6 5 4 3 8 5 8 11 10 10 7 7 7 8 11 5 4 6 5 4 7 10 12 12 13 13 11 6 5 4 4 5 7 7 9 11 10 10 9 8 9 6 3 5 5 9 10 9 11 11 10 11 12 11 11 11 11 11 11 10 10 12 12 11 11 10 10 10 9 8 8 7 7 6 6 6 6 6 6
3 3 6 3 1 4 3 4 3 3 6 4 6 10 6 11 11 10 9 8 7 7 9 9 9 9 6 1 5 7 9 9 10 12 12 10 5 6 7 6 6 9 11 11 10 11 12 11 11 10 10 4 7 6 9 10 10 10 10 10 11 11 11 11 11 11 11 11 11 11 11 11 10 10 9 9 10 9 9 8 8 7 7 6 5 5 6
4 4 6 3 5 1 3 1 2 1 3 2 2 5 4 7 9 8 8 6 4 5 4 4 4 5 2 4 4 5 5 7 7 9 9 9 9 6 5 5 8 10 11 12 12 10 9 9 7 8 13 12 8 7 7 8 9 10 10 10 11 10 9 10 9 9 10 11 11 10 10 10 10 10 10 10 10 9 9 9 8 8 8 7 6 5 6
4 3 4 3 0 2 2 6 3 3 4 4 1 4 0 7 7 7 7 6 7 5 4 2 5 6 2 5 3 3 6 5 7 7 7 8 9 9 7 7 7 9 11 11 11 12 11 8 8 7 10 11 9 8 7 7 7 7 7 6 7 6 5 8 9 8 8 10 11 11 10 9 9 9 9 9 10 10 10 10 10 8 8 8 8 6 6
2 5 4 2 2 2 4 4 7 3 3 2 4 3 1 4 6 8 9 9 7 5 8 5 5 6 7 6 4 6 7 7 6 6 5 8 8 9 9 9 8 6 10 8 8 9 5 6 5 7 5 1 6 6 7 6 6 6 6 7 7 7 6 6 6 7 7 9 10 10 9 7 9 10 11 12 11 10 10 9 10 9 9 8 7 7 6
2 2 3 2 3 2 6 7 6 6 3 4 2 3 1 4 7 8 9 11 9 8 10 8 7 7 7 6 6 8 8 8 5 4 5 8 7 9 9 10 10 10 10 6 6 4 5 6 7 6 3 1 3 7 7 8 7 7 7 6 7 7 7 6 6 6 7 8 8 7 9 11 11 10 9 10 10 11 9 9 11 10 9 9 8 7 7
1 1 2 3 3 2 7 7 3 10 2 2 3 6 6 6 7 9 10 9 7 6 7 7 7 7 7 7 8 7 5 7 8 7 7 7 7 8 7 8 7 7 5 11 10 9 5 4 3 3 2 5 5 3 6 8 9 9 8 7 7 7 7 8 7 7 8 10 9 8 10 12 13 13 12 12 11 10 11 10 12 13 10 9 9 9 8
0 2 2 2 1 1 8 6 4 7 8 4 4 5 7 7 6 7 7 9 9 5 6 5 5 8 9 7 8 7 7 7 7 6 7 8 7 6 6 6 5 6 6 9 11 10 7 6 4 3 4 2 2 1 4 6 7 9 11 10 9 9 7 7 6 7 8 7 7 7 8 9 9 12 12 11 10 9 9 9 9 10 10 11 9 9 8
1 2 2 2 1 6 5 9 9 7 6 7 9 10 8 7 7 7 7 7 9 8 5 7 5 6 8 9 10 10 8 8 7 8 7 6 6 7 7 7 7 7 9 9 9 11 9 11 8 6 6 6 6 2 2 7 8 7 7 8 6 6 8 9 8 6 6 5 5 5 6 7 8 9 9 9 9 7 7 7 7 8 10 10 9 8 7
8 8 4 2 4 9 10 9 8 9 9 8 9 10 9 9 8 6 6 6 9 11 8 8 7 8 7 9 10 10 9 9 9 7 7 6 5 6 7 7 6 8 9 9 9 9 10 9 6 4 5 6 7 5 2 4 6 5 5 7 7 8 8 7 7 7 6 5 4 5 6 5 7 8 8 8 7 7 7 7 6 6 9 10 9 8 7
2 5 6 8 9 10 12 12 11 10 10 10 10 11 11 9 8 7 8 7 8 9 10 8 10 9 9 9 9 9 8 9 8 9 9 8 8 7 7 5 5 6 7 7 7 8 8 6 6 6 7 6 6 5 5 5 5 5 7 9 9 9 8 7 6 6 6 5 5 5 3 5 4 6 5 6 5 6 7 8 7 7 7 8 8 8 7
6 3 6 8 8 10 10 8 9 10 10 11 11 10 11 10 9 9 9 10 11 9 9 11 8 9 8 9 8 8 9 8 8 8 8 7 7 5 5 6 7 8 8 7 7 7 6 6 5 6 6 6 6 6 5 3 5 6 7 8 8 7 7 5 5 4 5 7 7 5 4 3 5 5 4 3 4 3 4 3 8 8 8 8 8 8 8
7 6 5 4 14 13 12 10 10 9 9 10 10 10 10 11 12 9 9 11 7 7 10 11 9 9 9 9 9 9 7 7 7 7 7 7 8 7 7 8 8 8 7 7 7 7 8 6 7 7 6 5 5 4 3 4 5 7 7 9 9 7 6 5 5 6 6 6 6 6 7 8 8 7 4 4 6 6 5 4 6 8 9 8 6 6 8
3 2 1 3 3 4 8 10 11 11 11 11 10 9 10 10 11 10 10 9 7 7 7 7 8 8 8 8 8 9 8 7 7 7 7 7 8 8 7 7 9 8 8 7 8 8 8 7 7 6 5 5 4 4 4 5 6 8 7 7 7 6 6 6 6 7 6 6 6 7 7 8 9 10 14 15 9 6 6 11 16 13 9 7 9 10 10
3 1 2 4 8 11 10 10 10 11 10 10 10 10 9 10 10 9 8 9 8 7 5 3 6 6 6 7 7 8 7 8 7 7 7 7 6 7 7 9 9 9 8 8 7 8 6 6 6 6 5 5 5 5 5 4 5 6 4 5 6 5 6 5 5 6 7 7 6 6 6 7 8 10 9 11 17 15 12 11 13 15 16 15 14 12 10
7 4 4 6 9 10 10 11 10 10 9 10 9 8 7 8 9 9 9 8 8 7 7 7 7 6 5 6 7 8 9 8 7 8 7 7 7 7 8 8 8 7 6 6 6 6 6 6 7 6 6 6 6 6 6 7 6 5 5 5 5 5 5 5 6 6 7 8 8 8 6 7 8 8 10 10 10 15 15 15 15 14 14 15 15 14 14
8 8 9 9 11 10 9 10 10 9 9 9 8 9 8 6 8 9 9 8 7 8 8 8 8 7 7 7 8 8 7 7 7 6 6 7 7 8 7 8 7 7 5 5 7 8 7 6 5 5 6 5 5 5 6 5 4 5 6 6 6 6 5 5 5 6 7 7 7 8 9 8 7 8 9 9 11 9 11 17 18 16 14 12 15 16 16
8 8 10 10 9 8 7 9 11 10 9 8 8 8 9 8 8 9 10 10 8 8 8 8 7 6 5 6 6 5 7 6 5 3 6 6 6 6 7 7 7 7 8 8 7 5 5 4 5 5 7 7 7 7 6 5 5 6 7 6 6 5 5 6 6 5 5 6 7 6 7 7 7 8 7 9 10 10 11 9 11 13 15 15 13 14 13
7 6 6 9 9 8 7 9 9 9 9 8 7 7 6 9 8 11 9 8 9 7 7 7 6 5 6 7 4 6 6 4 2 3 7 7 8 6 5 6 8 8 7 6 6 5 3 5 6 7 6 6 6 5 6 6 7 7 6 6 6 7 9 7 6 6 5 6 6 7 7 8 8 9 9 8 10 11 11 11 10 9 6 7 10 10 10
7 9 8 7 7 8 9 8 9 9 8 7 8 6 6 8 10 11 10 10 10 9 7 7 8 7 6 7 6 4 3 6 8 8 8 7 6 4 5 5 6 5 5 5 4 2 2 6 6 7 6 6 6 6 7 7 6 7 7 7 7 6 6 7 6 6 6 5 6 6 7 7 8 9 9 9 9 9 9 10 11 11 7 5 5 8 14
8 9 8 8 8 7 5 8 10 9 9 9 8 9 9 9 9 9 8 7 6 7 8 8 7 8 7 7 7 8 7 7 8 9 8 7 6 5 4 4 3 3 4 5 5 4 6 7 7 6 6 6 7 6 6 6 6 6 6 6 6 5 5 6 6 6 6 6 5 6 6 6 7 7 7 7 7 8 9 9 9 7 7 8 8 8 9
7 6 7 6 5 5 6 6 7 10 9 7 8 9 9 9 9 8 8 7 6 7 8 8 8 7 7 7 8 8 7 7 8 8 7 5 5 4 4 3 2 3 4 6 7 7 7 6 6 6 5 6 6 5 5 5 5 6 6 7 6 5 5 7 7 7 7 7 8 9 8 7 6 7 7 7 7 8 8 8 9 9 9 8 7 9 9
5 5 5 4 4 5 7 8 8 10 9 9 9 8 8 8 8 8 8 8 8 7 8 8 7 8 8 8 7 5 3 5 7 8 7 6 5 5 5 3 3 5 5 5 6 5 6 5 5 5 5 6 6 5 5 5 6 6 5 5 6 9 10 9 7 7 7 8 8 8 7 7 6 7 7 8 8 7 8 8 8 7 7 8 8 8 8
3 2 3 2 2 3 7 6 7 9 8 6 6 7 7 7 8 8 7 7 7 7 7 7 7 7 6 6 7 7 5 3 6 7 7 6 5 3 3 5 6 5 6 5 4 4 4 5 5 5 5 5 5 5 5 6 5 6 5 6 7 6 6 9 8 8 8 8 8 7 7 7 7 7 8 8 8 8 8 8 8 8 7 8 8 7 7
3 4 5 8 10 6 7 8 6 8 7 5 5 6 7 7 7 7 6 5 6 6 7 7 6 7 7 7 7 5 3 5 6 4 4 5 5 5 4 3 4 6 6 5 5 5 5 6 5 4 4 5 5 5 5 6 6 6 6 5 6 6 6 6 8 7 7 8 7 7 7 7 7 7 7 8 7 6 8 8 8 7 7 6 7 6 6
4 3 4 5 6 7 8 7 7 6 6 6 6 6 6 6 6 6 6 5 6 7 7 6 6 7 6 7 7 8 4 5 5 5 5 4 4 4 5 4 5 5 5 5 5 5 4 5 5 4 5 5 6 6 6 7 6 6 6 6 6 7 7 6 7 7 6 7 7 9 8 8 8 8 7 7 7 7 7 8 6 7 8 7 6 6 7
7 9 9 9 8 8 6 6 6 5 4 6 6 5 6 6 5 5 3 5 6 6 5 5 6 6 7 7 7 8 7 6 6 5 3 3 2 2 3 4 5 5 5 5 6 6 6 5 5 6 6 6 6 6 6 7 7 7 7 6 7 7 7 6 6 6 7 8 8 8 8 8 8 7 7 8 7 8 8 7 7 8 7 7 7 6 7
5 8 7 7 7 6 5 5 5 6 6 5 5 5 5 5 6 6 5 6 5 4 5 6 5 6 7 7 7 7 7 7 6 5 5 3 2 3 0 2 4 5 5 6 5 7 8 7 10 11 7 6 6 6 7 7 8 7 8 7 7 7 6 6 6 6 6 8 7 6 6 8 8 7 7 6 7 7 7 7 6 7 7 8 8 8 7
10 9 6 6 4 5 6 5 6 6 6 5 5 5 6 6 6 5 4 5 5 4 4 5 5 6 7 6 6 6 6 5 4 4 4 2 0 4 6 5 5 3 6 5 5 6 7 6 9 11 7 6 6 6 7 9 7 7 7 6 6 7 7 7 6 7 6 5 6 6 7 6 5 5 5 7 7 7 7 6 7 7 6 7 7 6 5
7 6 5 5 5 6 6 5 5 4 5 6 6 6 5 4 4 4 5 6 6 5 4 4 5 6 6 6 6 6 6 6 6 5 5 5 5 7 7 7 6 7 6 4 4 5 4 4 2 6 7 6 5 6 8 11 9 8 6 6 5 5 7 8 8 7 7 6 5 7 7 7 7 7 7 6 6 6 6 7 7 7 7 7 7 7 5
7 5 5 5 4 5 4 3 4 6 6 6 5 6 5 5 5 5 5 6 6 6 5 5 4 4 7 7 6 6 6 5 4 5 5 5 7 7 6 6 6 6 4 4 2 5 3 1 2 7 7 7 7 7 4 4 7 7 7 6 6 5 5 6 7 8 7 6 6 6 7 8 7 9 7 6 6 7 7 8 8 7 7 6 6 6 5
6 6 6 3 5 5 5 6 6 6 5 5 6 6 5 5 5 6 5 5 6 5 5 7 7 6 6 6 6 4 4 4 4 3 3 3 4 6 6 6 7 6 6 8 7 5 6 8 3 6 6 6 6 5 4 4 5 6 7 7 7 6 6 6 6 7 6 6 8 8 8 7 8 8 7 7 6 6 6 7 7 7 7 6 6 6 7
5 5 4 4 4 3 5 4 4 4 5 6 6 6 6 6 5 4 5 5 5 5 7 6 6 6 6 5 5 5 4 4 4 5 4 3 3 4 4 4 5 5 6 6 5 4 6 4 5 6 6 6 6 5 5 6 5 5 5 7 7 6 7 7 6 6 6 5 6 7 8 7 7 8 6 7 7 6 6 7 7 6 6 6 6 7 7
6 4 3 2 4 6 5 4 4 4 5 5 5 4 5 6 5 5 5 5 4 5 6 7 7 5 4 4 3 4 4 4 5 5 6 6 5 3 4 4 4 4 8 6 3 3 5 6 6 6 7 7 6 6 7 6 6 6 6 6 7 8 7 8 8 7 7 7 6 7 7 7 8 7 7 7 6 6 6 6 7 6 6 6 6 6 7
5 4 3 3 4 4 3 3 4 5 5 5 5 5 5 5 5 5 5 5 5 5 5 5 4 4 5 5 5 5 5 3 5 6 7 6 7 7 4 3 4 6 10 4 1 4 5 5 5 5 7 8 7 7 7 6 7 7 7 8 7 7 7 7 7 7 8 8 8 7 8 8 8 6 6 7 6 5 5 6 7 7 7 6 6 7 7
4 5 2 2 4 4 3 3 4 3 4 6 6 5 6 5 5 6 5 5 6 7 7 6 6 5 5 5 5 5 5 5 5 2 5 5 6 6 6 4 4 6 9 7 4 5 5 4 5 7 10 10 10 7 6 7 7 7 7 8 8 7 8 7 7 7 8 8 8 8 7 7 8 8 8 7 7 6 6 5 5 5 6 6 5 5 7
4 4 4 5 3 2 3 4 3 3 4 5 5 6 5 5 5 6 6 6 6 6 6 6 6 6 5 5 4 3 3 4 4 6 4 3 4 3 4 5 4 4 6 8 6 6 5 4 5 9 9 10 11 10 7 6 6 7 7 7 7 8 8 8 8 7 8 8 9 8 8 8 7 7 7 7 7 7 6 6 6 6 6 6 6 7 8
4 3 4 3 2 3 4 3 3 2 3 3 3 4 6 5 5 5 6 6 6 6 6 6 6 5 5 4 4 4 5 5 7 7 6 5 5 3 3 4 4 5 8 9 6 7 5 5 6 6 9 10 10 8 7 7 7 7 7 7 7 8 8 8 8 8 8 8 9 8 8 8 7 7 7 6 5 6 6 8 8 8 8 9 9 9 9
5 3 3 2 3 3 2 2 2 3 2 1 3 4 4 4 4 5 5 5 5 6 6 6 6 6 6 6 5 3 4 5 6 6 6 5 5 5 5 6 7 7 6 6 6 5 4 4 5 6 7 8 8 7 7 7 7 7 7 7 8 8 8 8 8 8 7 7 8 8 8 9 8 8 8 8 8 8 8 9 8 8 8 9 9 10 10
2 4 4 3 1 2 1 1 1 3 3 4 4 4 4 3 4 5 5 4 5 6 6 6 6 7 7 7 7 6 5 4 6 5 4 5 5 6 6 5 6 7 9 9 9 7 8 8 9 10 10 10 8 8 8 8 8 8 8 7 7 7 7 7 7 8 8 8 9 8 8 8 8 7 8 8 8 8 8 8 8 7 8 8 8 8 8
2 5 3 2 1 0 1 3 3 3 3 4 4 4 3 1 3 4 4 4 4 4 5 6 7 7 7 7 7 5 5 4 4 5 5 6 6 6 6 5 6 8 8 7 7 6 9 11 11 11 12 10 7 7 7 7 7 7 7 7 7 8 8 7 7 6 7 7 7 7 7 8 7 8 8 8 8 8 8 8 8 8 7 8 8 8 8
3 2 2 1 0 2 2 2 2 3 3 3 3 2 1 1 2 4 4 2 3 3 4 5 5 6 6 6 6 6 6 6 6 5 5 5 7 7 7 7 7 8 9 8 8 7 9 13 12 12 10 8 8 8 6 7 7 7 7 8 8 6 6 7 7 9 8 8 8 8 8 8 8 9 9 9 9 9 9 9 9 10 13 10 8 8 8
2 1 1 1 1 1 1 1 2 3 3 2 2 3 0 1 3 4 3 4 2 3 4 4 5 6 5 4 5 6 6 6 7 7 7 7 7 7 7 7 7 6 7 7 7 7 7 6 6 9 10 9 9 8 8 8 8 8 8 7 7 7 8 9 8 8 8 8 9 9 9 9 9 9 8 8 8 8 8 8 8 6 6 6 7 6 7
1 1 1 1 1 1 1 1 1 2 2 1 2 1 2 2 0 2 5 2 3 3 3 4 5 5 4 5 5 5 5 6 7 7 6 7 7 8 8 7 7 7 7 8 8 8 7 7 8 9 9 8 8 9 9 11 9 8 8 9 8 8 8 8 8 8 8 9 9 8 9 8 8 9 8 8 8 8 8 8 8 7 8 7 7 7 7
Wind_Direction
259 219 202 185 192 198 188 194 202 204 209 205 208 226 254 253 341 60 77 56 61 43 29 32 38 64 55 109 149 148 134 126 136 146 150 156 158 159 163 162 165 170 171 174 166 166 165 162 166 170 172 169 162 159 173 177 162 170 168 166 159 155 154 160 162 160 147 145 137 137 133 133 143 148 152 160 159 158 160 160 159 155 153 159 156 155 159
229 249 222 196 193 190 188 193 203 214 209 209 219 212 71 95 125 125 90 88 70 56 24 31 43 76 83 43 312 126 142 153 144 151 153 158 164 164 167 167 170 172 168 169 167 163 164 163 166 166 168 162 159 165 173 165 165 166 161 154 157 158 162 163 160 159 151 142 139 138 142 151 159 157 154 151 154 155 160 165 159 154 146 169 162 151 151
212 233 265 218 202 195 185 193 199 200 196 208 204 132 164 101 104 92 87 81 69 47 26 26 21 24 46 144 205 149 151 146 148 152 160 166 169 170 167 168 166 168 164 168 168 167 167 168 166 167 164 157 161 170 169 164 166 162 156 154 156 160 160 155 157 154 150 150 150 151 157 163 159 151 149 148 153 155 149 162 163 152 151 153 144 146 149
272 243 240 212 198 201 194 195 195 198 205 207 188 77 56 120 136 131 97 74 65 25 19 42 41 51 37 2 314 113 133 144 154 159 163 163 170 169 170 169 165 169 173 166 172 172 168 167 164 163 155 156 164 170 164 166 159 157 157 159 156 160 161 159 157 157 156 153 152 153 159 154 151 150 150 155 156 157 152 166 173 157 142 137 138 145 149
263 235 212 213 196 194 197 196 198 205 195 200 131 112 72 21 27 45 35 75 53 52 53 66 57 59 62 40 353 338 304 167 151 152 162 165 160 167 165 164 167 168 167 163 167 165 166 164 162 153 150 156 164 164 161 158 152 156 157 157 157 159 158 155 154 150 154 156 151 148 156 152 150 153 157 156 152 149 149 150 154 148 137 134 142 145 138
274 236 203 194 187 191 194 183 204 205 194 207 152 115 97 67 52 57 64 32 53 74 41 71 76 72 70 80 343 59 359 317 168 168 143 142 137 143 150 155 164 168 163 163 165 167 162 154 155 145 147 151 156 160 161 156 152 154 155 154 155 156 158 158 151 152 157 160 152 151 151 147 147 147 149 152 147 142 142 147 151 140 136 140 138 122 126
281 291 272 184 189 183 112 22 251 210 204 168 89 69 63 54 57 54 79 49 50 62 75 71 99 94 83 55 36 12 1 346 36 89 120 132 128 135 144 159 165 164 159 160 157 95 65 53 34 347 251 164 171 165 159 149 144 150 155 156 160 158 157 154 148 153 156 160 152 151 149 149 145 145 147 145 151 150 152 156 158 150 148 143 141 148 137
322 313 244 177 173 17 167 77 284 333 70 80 86 67 52 53 51 52 62 60 31 72 83 60 50 111 123 72 35 21 8 6 14 86 100 95 111 139 167 162 148 155 160 135 106 121 144 137 156 164 221 283 171 147 143 149 149 152 159 162 160 159 157 156 154 158 164 164 158 151 154 152 154 154 156 153 151 150 149 145 139 135 136 142 148 157 145
247 219 175 120 93 99 34 127 29 323 101 151 126 112 62 46 35 21 23 50 20 66 100 108 79 4 7 53 41 22 17 17 32 29 33 58 94 104 119 130 130 128 105 114 125 128 126 121 132 154 96 308 243 149 142 149 154 158 163 165 164 158 156 159 158 163 165 164 164 157 155 155 157 156 152 146 143 145 149 153 143 150 145 146 153 157 150
237 224 108 118 95 156 246 327 57 55 78 338 91 107 107 46 33 12 10 30 21 66 124 157 156 164 162 96 53 23 21 11 34 38 36 27 56 112 112 125 124 114 110 104 118 127 142 155 154 156 131 131 258 173 145 152 154 158 166 162 159 160 159 158 164 169 167 162 156 152 152 155 157 154 145 143 146 149 152 155 151 149 146 146 161 170 156
322 190 147 151 160 101 338 169 246 11 33 10 19 77 85 42 31 25 1 31 20 12 52 112 186 195 179 79 64 38 41 23 19 51 39 37 33 41 74 108 130 125 119 126 134 142 154 157 156 160 147 156 205 166 151 153 155 162 167 161 156 159 160 161 167 169 162 155 148 147 150 159 155 150 148 149 148 153 149 151 150 149 152 157 170 167 161
243 169 108 123 19 112 284 260 162 352 19 297 228 86 58 40 32 28 14 30 19 12 32 7 37 7 83 101 78 82 69 44 28 45 49 52 61 54 45 63 76 105 112 115 132 149 155 148 150 174 170 167 171 154 157 147 147 147 141 139 144 135 138 159 166 161 147 143 145 147 154 158 152 144 130 134 149 156 152 153 154 158 161 161 168 165 160
340 80 115 108 127 53 319 316 351 351 297 297 177 160 72 35 49 33 19 23 33 22 36 45 83 56 72 100 107 96 92 81 58 53 50 58 52 63 53 46 45 79 124 125 127 143 153 119 67 34 36 346 174 158 136 127 124 121 122 127 119 106 101 97 110 120 116 138 145 144 146 132 120 128 139 150 161 162 160 157 157 156 160 160 163 161 160
1 50 89 105 79 99 292 324 334 1 217 166 146 67 340 54 69 60 39 35 27 41 50 66 74 96 97 86 96 84 81 87 91 98 96 92 84 62 55 55 60 49 54 91 128 105 55 58 73 94 184 356 256 156 141 140 133 119 114 108 118 126 124 127 118 117 125 135 140 115 111 125 130 140 151 159 160 161 163 161 155 159 164 159 158 147 136
280 221 150 143 118 27 327 278 3 13 41 81 124 117 73 58 78 72 56 39 14 34 80 72 86 92 86 86 78 74 74 73 77 74 70 70 84 87 73 60 52 63 86 84 65 66 64 60 15 61 44 176 210 192 155 143 134 132 125 126 127 135 146 149 155 137 129 140 135 133 146 151 154 159 165 168 168 165 165 167 162 161 158 136 134 141 149
355 98 67 59 235 347 24 57 90 69 81 112 93 103 91 59 49 55 47 24 4 22 77 89 92 89 83 71 67 64 58 58 55 66 79 76 67 89 101 105 102 131 112 104 113 122 119 100 119 161 100 322 283 210 172 124 127 141 149 149 158 157 160 153 122 118 133 137 142 145 151 152 156 158 165 167 169 170 167 164 164 158 140 140 147 153 158
5 62 96 120 111 93 56 77 93 107 111 94 87 77 72 70 60 55 52 31 16 1 62 67 59 77 78 80 77 70 61 61 65 66 56 61 77 93 111 123 143 115 88 94 108 114 120 126 136 135 147 167 128 39 325 144 142 147 154 143 128 115 96 95 105 114 113 121 124 121 133 146 148 158 161 163 170 172 160 161 166 158 142 144 155 156 155
102 73 72 156 93 83 87 73 73 79 76 76 81 81 81 70 60 52 52 37 19 13 0 87 62 66 66 78 79 79 75 68 52 38 50 56 54 75 78 76 84 94 97 94 90 87 91 88 84 93 114 137 126 133 96 51 65 62 103 114 116 108 107 108 112 120 114 107 112 117 130 153 159 166 163 166 176 166 164 165 162 155 150 150 154 158 142
268 64 21 48 58 75 79 81 82 73 66 67 76 83 79 81 71 64 60 52 29 18 9 39 85 85 85 83 85 88 83 74 62 55 53 48 46 44 52 68 94 93 92 80 76 83 83 91 105 104 95 81 88 89 79 65 57 83 95 92 89 99 107 108 111 118 121 115 100 100 120 141 154 166 145 164 172 171 168 163 146 150 129 121 120 111 116
68 110 90 87 82 77 68 66 69 75 75 70 71 86 97 93 78 56 52 54 30 3 18 359 41 69 73 81 82 81 85 84 83 80 76 79 78 66 58 41 52 73 76 78 81 78 74 77 82 88 89 94 103 110 96 85 85 77 87 101 102 97 102 102 107 113 115 116 119 103 77 93 103 94 74 107 131 120 144 148 149 134 122 117 120 133 138
65 59 16 61 86 71 71 72 63 54 62 73 64 60 73 85 85 84 76 74 66 13 9 8 7 40 57 73 81 85 83 82 81 81 85 78 68 63 66 59 55 63 70 73 72 67 66 64 64 59 62 73 81 90 110 126 107 94 91 90 99 109 111 112 102 93 106 110 101 100 89 72 49 31 32 72 95 74 42 94 108 128 131 114 110 103 104
70 12 79 306 59 76 61 54 62 67 57 54 61 66 68 65 68 64 72 81 84 70 47 19 358 31 43 55 73 75 76 81 83 78 75 68 68 68 63 64 63 61 55 57 57 56 51 43 49 55 57 66 68 75 77 81 79 94 100 103 108 113 108 93 99 104 97 94 107 110 109 108 96 71 47 49 39 83 96 91 96 87 81 106 117 113 109
94 49 322 263 87 82 62 55 48 53 63 58 51 47 50 71 74 65 64 76 68 64 64 46 36 5 23 38 64 78 80 80 77 76 72 78 76 72 71 71 63 51 42 43 52 55 50 51 55 51 47 45 51 63 72 77 81 90 92 96 99 101 93 105 112 117 116 113 117 117 114 111 104 103 86 45 41 47 64 76 84 91 98 101 103 110 121
106 180 147 88 75 74 70 61 55 54 52 60 57 51 41 44 65 80 74 56 56 59 49 48 28 12 29 47 45 63 65 61 65 67 61 54 59 64 72 76 75 72 60 53 52 50 47 44 50 49 55 42 36 42 43 45 49 87 105 98 110 105 94 106 103 109 119 123 124 123 116 115 118 119 106 100 62 35 48 67 67 78 93 101 106 107 113
90 82 84 83 82 82 76 68 63 56 55 77 75 53 36 58 66 68 69 69 51 43 44 40 34 23 27 39 44 47 58 64 57 52 60 57 48 55 62 69 70 64 55 53 60 55 51 50 45 49 55 53 51 52 58 62 71 61 82 89 93 98 111 113 107 114 123 130 132 132 135 129 125 122 122 119 106 92 51 58 67 67 65 83 102 111 121
78 97 90 80 71 69 81 77 59 50 45 40 83 101 81 36 4 57 59 56 51 46 42 34 34 16 27 49 43 50 80 73 60 22 64 55 59 61 62 64 65 61 56 54 59 61 70 66 70 61 58 53 46 41 45 65 73 71 77 89 109 120 123 116 119 124 126 131 132 129 127 125 125 120 115 116 119 113 109 101 70 57 53 55 72 98 103
52 35 72 83 78 85 60 54 63 48 45 40 44 56 87 122 85 61 55 45 41 41 41 34 30 30 43 31 53 57 51 86 127 80 76 69 62 49 51 69 73 74 73 75 77 71 51 71 66 59 58 60 59 61 59 56 67 78 90 89 87 88 98 108 112 116 121 123 128 129 127 125 122 122 121 126 125 121 122 114 108 102 101 57 40 66 97
55 61 54 57 59 50 52 69 79 71 55 45 36 42 90 81 73 69 53 46 37 30 32 28 25 19 39 41 24 60 79 78 75 74 73 71 66 56 62 75 84 84 103 125 124 162 105 84 76 71 64 62 68 70 77 76 77 87 95 107 112 114 106 101 107 115 118 125 127 130 133 129 129 127 134 136 130 130 123 119 121 124 101 71 86 77 86
39 40 47 47 51 60 62 66 68 64 52 49 46 14 18 75 72 69 65 57 47 48 42 29 19 29 28 34 33 37 41 71 78 80 83 83 82 73 61 64 77 95 85 84 86 81 68 71 78 76 71 63 62 62 71 93 98 104 111 115 121 120 117 114 118 119 120 119 120 115 112 117 121 125 121 109 108 112 113 116 116 108 112 127 115 89 69
42 35 40 43 37 41 56 43 45 64 58 45 52 41 34 51 57 54 52 50 37 44 44 33 20 25 31 38 39 35 30 51 67 68 71 78 83 94 98 93 66 50 46 49 60 69 69 68 74 79 73 78 78 75 70 74 89 100 115 120 121 120 123 124 123 123 115 102 102 100 106 113 113 113 111 111 112 112 114 115 122 123 125 128 124 125 125
47 33 38 28 47 54 53 41 52 54 42 36 43 49 48 51 58 57 51 47 39 35 37 37 28 19 17 23 26 34 51 78 80 83 80 68 65 51 38 37 80 69 62 63 63 66 78 80 75 67 70 83 88 89 95 99 99 97 74 65 78 100 111 120 116 114 115 118 117 118 116 116 123 120 119 118 114 110 112 119 117 116 118 121 120 124 125
62 63 31 33 39 47 77 65 54 55 53 42 45 57 50 46 48 50 52 52 45 36 36 40 38 33 25 22 7 356 356 62 84 88 87 80 66 59 75 86 86 92 88 82 76 84 105 99 82 81 87 91 100 108 108 106 104 98 96 100 102 103 97 100 105 114 123 120 125 123 125 126 122 122 117 120 122 125 127 119 115 118 123 118 120 122 129
11 34 41 11 6 16 62 52 38 61 51 44 54 56 54 50 54 48 55 61 57 44 39 35 36 36 23 20 4 359 54 82 76 68 92 91 86 82 48 37 88 92 91 81 76 76 73 82 81 73 83 91 93 94 98 103 106 108 108 101 100 100 99 99 110 113 113 117 120 120 117 111 116 115 118 118 119 119 115 113 119 121 118 119 119 123 133
68 75 36 38 25 21 15 42 43 46 55 49 39 44 47 55 64 54 37 47 58 54 36 27 35 44 37 24 14 8 42 82 60 50 58 83 103 102 108 94 89 95 92 85 80 78 91 95 97 100 97 86 71 70 85 95 97 102 106 102 107 109 109 112 115 113 111 102 102 107 111 112 114 116 120 120 119 118 119 122 125 119 116 119 124 126 140
48 50 45 46 46 51 38 42 48 40 53 64 54 44 38 27 44 68 24 40 52 51 49 43 37 49 48 41 35 30 32 62 83 77 63 44 41 93 108 121 133 128 110 88 84 77 58 64 99 103 87 81 81 80 79 91 105 109 106 106 110 110 109 108 105 109 112 116 121 121 121 121 125 127 128 130 125 123 127 126 121 123 123 131 135 144 165
87 84 67 64 55 53 58 60 67 65 54 45 49 56 57 45 34 40 44 53 50 56 48 49 39 44 52 46 44 39 37 44 65 78 81 73 1 336 136 146 146 132 118 107 82 83 79 59 45 53 60 64 71 79 85 97 103 101 106 109 110 101 99 97 103 106 108 118 119 121 123 128 131 135 138 126 125 133 132 133 136 133 138 143 150 162 171
52 61 68 85 94 73 62 58 58 53 55 50 55 52 47 32 35 20 26 45 40 41 43 51 48 50 57 66 56 42 34 34 39 51 65 100 216 20 26 30 28 73 118 103 73 73 81 83 93 83 74 73 70 72 75 91 109 107 110 111 116 117 111 98 93 96 93 87 94 93 92 99 112 133 131 124 143 149 152 145 135 133 133 128 131 132 136
75 87 85 60 52 67 68 47 39 58 56 49 43 39 44 32 25 12 35 42 36 21 24 47 49 63 78 78 58 47 39 20 18 34 32 33 52 62 50 45 41 30 30 32 88 100 94 118 156 96 90 84 92 90 93 100 109 108 105 99 100 104 110 113 109 107 106 105 99 93 87 82 81 72 62 68 74 82 94 100 104 106 107 106 107 111 124
86 81 65 66 71 60 54 80 43 45 47 52 52 49 38 26 22 19 33 39 33 11 6 27 36 61 67 60 52 50 38 15 22 31 34 55 56 66 67 58 52 38 24 307 120 101 104 16 131 90 89 98 104 108 74 85 108 112 111 108 97 91 89 97 108 110 109 112 102 89 78 79 79 79 74 74 76 81 86 97 101 102 104 105 108 109 99
79 53 45 33 63 52 50 50 49 50 44 22 36 43 34 33 27 22 25 30 30 10 15 30 22 38 49 62 59 51 40 27 11 31 31 44 97 97 85 54 34 25 7 2 38 47 18 334 54 101 109 117 120 103 82 81 120 117 118 114 111 105 99 100 99 101 101 103 104 99 94 89 86 86 88 85 83 86 91 92 93 97 97 100 102 96 84
55 52 58 43 82 79 53 49 56 45 30 28 33 40 29 27 26 21 36 23 28 35 48 41 23 26 32 41 52 63 60 51 41 32 28 53 74 81 64 49 25 30 16 7 16 25 13 17 107 100 107 107 112 120 108 51 80 105 109 111 111 110 113 109 106 103 105 104 104 109 111 109 99 93 90 89 88 91 94 94 95 93 99 106 101 94 91
68 58 73 54 35 60 63 53 44 37 38 50 56 49 39 25 30 35 36 34 31 41 68 78 60 31 18 24 59 86 82 74 71 65 52 42 23 49 86 66 39 29 355 345 332 8 27 38 53 86 101 103 99 93 96 91 89 89 95 91 105 108 105 105 102 99 96 95 94 96 95 98 101 102 99 98 95 96 99 104 104 107 109 108 108 107 110
81 80 46 60 85 73 57 53 50 47 35 33 39 39 44 34 33 39 46 44 34 22 30 48 82 62 31 13 23 43 52 69 114 100 83 71 54 37 53 70 18 16 348 312 267 59 56 53 59 58 79 101 117 134 114 96 101 98 102 102 100 102 104 105 110 110 109 106 104 103 102 103 102 102 102 105 109 109 112 114 122 131 139 138 124 120 125
113 90 82 8 46 57 80 58 48 37 33 41 43 48 45 43 44 39 28 27 35 31 27 28 31 31 39 31 28 33 26 9 16 60 128 114 89 56 32 23 12 3 358 25 69 81 75 75 71 85 84 89 92 94 100 107 107 109 112 114 113 106 103 101 100 104 107 107 106 103 103 99 99 100 101 101 98 96 95 100 105 107 113 113 116 109 90
87 82 63 47 49 55 55 63 52 31 31 45 49 53 43 46 45 43 41 40 41 41 41 45 33 29 39 56 51 42 36 22 16 8 17 66 86 56 10 350 15 10 30 49 61 54 65 65 81 91 94 90 89 92 96 95 99 105 109 111 112 115 112 110 110 106 105 104 103 103 103 104 105 106 104 102 104 107 111 114 105 105 107 109 100 90 89
93 91 80 74 55 61 52 43 44 24 22 36 58 82 59 40 41 51 47 48 46 45 46 46 41 35 30 61 112 92 69 62 52 51 48 31 59 62 15 8 36 47 66 66 79 77 68 51 63 87 102 99 96 94 99 101 101 97 96 94 99 103 107 106 103 102 102 105 109 110 112 113 113 109 106 107 102 94 80 70 67 60 59 65 69 77 78
135 128 116 87 58 60 51 48 19 20 25 57 90 83 65 52 46 49 58 61 58 59 56 59 57 49 44 35 25 61 100 82 71 67 80 86 85 78 63 53 55 45 59 70 67 64 63 68 71 70 85 107 108 109 109 108 103 101 98 102 105 109 111 114 114 113 110 106 107 108 107 107 109 108 103 94 88 87 92 89 90 85 79 79 80 81 84
95 100 102 111 130 65 10 321 84 47 45 47 48 60 72 81 66 68 72 71 78 78 82 84 75 58 47 57 61 46 49 90 94 76 69 84 86 87 85 86 94 94 80 70 63 51 57 71 73 77 77 80 83 88 88 96 101 105 104 101 97 96 95 99 103 107 110 114 114 113 112 107 102 94 89 85 83 79 80 83 88 90 89 88 88 89 91
113 94 103 122 156 222 15 32 39 52 55 61 65 81 92 110 100 90 69 66 69 74 77 82 79 78 76 73 69 68 67 61 73 97 100 106 105 103 101 100 93 84 76 76 71 58 64 70 67 69 70 73 76 82 88 93 95 101 101 101 100 101 104 109 114 116 112 107 102 95 93 91 91 90 89 84 84 82 83 82 81 82 86 85 81 78 79
83 129 143 114 31 25 354 4 14 44 58 59 79 96 145 87 69 81 77 55 58 54 58 52 56 64 62 73 85 89 89 91 93 104 113 102 94 85 83 83 81 80 87 93 87 80 68 68 66 64 67 73 72 67 67 75 79 79 85 87 87 90 90 91 87 82 80 79 78 77 77 75 73 74 76 79 81 83 82 82 81 82 84 87 92 92 91
158 221 129 130 146 163 143 353 6 41 46 56 61 59 348 85 70 63 56 28 28 73 64 76 75 76 78 71 80 80 80 70 59 57 70 80 87 88 90 91 78 70 79 84 85 80 78 74 76 79 77 74 74 72 70 64 62 60 61 67 73 77 73 68 68 74 78 88 93 93 95 97 98 97 96 96 94 94 93 93 95 95 93 92 90 89 87
199 164 69 309 25 38 16 347 3 46 23 23 40 75 70 49 32 109 93 44 325 65 62 63 70 67 74 82 71 74 82 99 106 92 91 92 96 96 93 92 91 81 80 82 80 74 72 69 70 72 76 80 83 82 78 75 70 66 63 65 64 61 63 74 82 82 81 81 86 90 89 92 93 92 89 89 88 89 89 88 86 83 81 85 88 91 95